SSC

operational
NORAD ID: 13874 Int'l Des: 1983-008 Owner: NRO/NRL Country: US
LEO

关于 SSC

正在加载描述...

实时位置

正在加载3D地球...

即将过境

高度历史

Altitude vs Time

uPlot chart will show altitude changes over time

两行轨道根数

1 13874U 83008H 26062.63134257 .00004601 00000-0 57482-3 0 9999
2 13874 63.3054 294.1538 0718286 134.7589 231.4261 13.80265200337073
Epoch: Mar 3, 2026 • Age: 26 hours

当前状态

高度 1298.7 km
速度 7.04 km/s
星下点 2.00°N, 108.17°E
发射日期 Feb 9, 1983
运行时间 43 years
类型 other

技术详情

分类 Payload
质量 200.00 kg
干质量 200.00 kg
总质量 200.00 kg
长度 0.90 m
直径 0.40 m
跨度 10.00 m
形状 Box + Ant
制造商 MM
平台类型 NOSS SSU
阶段状态 In Orbit
所有者/国家 NRO/NRL/US

大型星座

Loading constellations...